AUA21A EDDF-LOWW

Flight info

Callsign AUA21A
Flight time 0h 59m
Altitude 35000
Route CINDY6F CINDY Z74 HAREM DCT ASLEP DCT TAKUT DCT DINKU L603 BESNI L605 MIQ DCT ALUTU DCT BIBAG DCT AKIMA DCT MASUR MASUR3W
Aircraft A20N/M-SDE2E3FGHIRWXY/LB2

Departure

Time 2026-04-16 07:35
Airport Frankfurt Main Airport (EDDF)

Arrival

Time 2026-04-16 08:34
Airport Vienna International Airport (LOWW)
Time Latitude Longitude Altitude Speed Heading
2026-04-16 07:05 50.04598 8.57065 345 ft 0 kts 61°
2026-04-16 07:21 50.04595 8.57057 360 ft 2 kts 64°
2026-04-16 07:21 50.04589 8.57029 348 ft 3 kts 85°
2026-04-16 07:22 50.04590 8.56999 354 ft 3 kts 113°
2026-04-16 07:22 50.04600 8.56973 353 ft 3 kts 136°
2026-04-16 07:22 50.04616 8.56954 352 ft 3 kts 152°
2026-04-16 07:22 50.04634 8.56941 351 ft 3 kts 167°
2026-04-16 07:23 50.04653 8.56938 352 ft 2 kts 194°
2026-04-16 07:23 50.04659 8.56940 347 ft 1 kts 204°
2026-04-16 07:27 50.04658 8.56939 360 ft 1 kts 204°
2026-04-16 07:27 50.04608 8.56909 345 ft 13 kts 199°
2026-04-16 07:28 50.04508 8.56868 345 ft 17 kts 190°
2026-04-16 07:28 50.04384 8.56830 345 ft 19 kts 191°
2026-04-16 07:28 50.04280 8.56895 348 ft 12 kts 106°
2026-04-16 07:28 50.04295 8.56964 350 ft 7 kts 67°
2026-04-16 07:29 50.04316 8.57060 352 ft 11 kts 73°
2026-04-16 07:29 50.04340 8.57198 348 ft 15 kts 70°
2026-04-16 07:29 50.04385 8.57365 351 ft 18 kts 69°
2026-04-16 07:29 50.04432 8.57563 353 ft 21 kts 70°
2026-04-16 07:30 50.04486 8.57793 353 ft 24 kts 68°
2026-04-16 07:30 50.04544 8.58042 354 ft 22 kts 70°
2026-04-16 07:30 50.04575 8.58167 349 ft 12 kts 68°
2026-04-16 07:30 50.04605 8.58282 350 ft 7 kts 68°
2026-04-16 07:31 50.04615 8.58323 350 ft 0 kts 70°
2026-04-16 07:32 50.04616 8.58329 349 ft 3 kts 70°
2026-04-16 07:32 50.04641 8.58442 345 ft 18 kts 71°
2026-04-16 07:32 50.04599 8.58573 353 ft 1 kts 149°
2026-04-16 07:32 50.04592 8.58581 351 ft 3 kts 147°
2026-04-16 07:33 50.04581 8.58626 351 ft 7 kts 84°
2026-04-16 07:33 50.04536 8.58673 348 ft 8 kts 184°
2026-04-16 07:33 50.04490 8.58617 345 ft 10 kts 231°
2026-04-16 07:33 50.04463 8.58500 345 ft 13 kts 258°
2026-04-16 07:34 50.04438 8.58351 353 ft 16 kts 252°
2026-04-16 07:34 50.04393 8.58178 354 ft 24 kts 247°
2026-04-16 07:34 50.04223 8.57448 352 ft 115 kts 248°
2026-04-16 07:34 50.03868 8.55925 437 ft 173 kts 250°
2026-04-16 07:35 50.03461 8.54077 1072 ft 194 kts 250°
2026-04-16 07:35 50.02997 8.52157 2373 ft 189 kts 249°
2026-04-16 07:35 50.02391 8.50244 3237 ft 210 kts 231°
2026-04-16 07:35 50.01137 8.48919 4013 ft 235 kts 200°
2026-04-16 07:36 49.99461 8.48447 4784 ft 258 kts 180°
2026-04-16 07:36 49.97698 8.49182 5760 ft 269 kts 151°
2026-04-16 07:36 49.96302 8.51177 6720 ft 279 kts 123°
2026-04-16 07:36 49.95471 8.53929 7697 ft 285 kts 110°
2026-04-16 07:37 49.94769 8.56851 8521 ft 290 kts 110°
2026-04-16 07:37 49.94180 8.59855 9040 ft 293 kts 101°
2026-04-16 07:37 49.93902 8.62999 9518 ft 294 kts 91°
2026-04-16 07:37 49.93825 8.66182 9989 ft 296 kts 96°
2026-04-16 07:38 49.93204 8.69181 10437 ft 300 kts 119°
2026-04-16 07:38 49.91876 8.71683 10877 ft 302 kts 141°
2026-04-16 07:38 49.90165 8.73584 11327 ft 304 kts 146°
2026-04-16 07:38 49.88572 8.75756 11777 ft 307 kts 132°
2026-04-16 07:39 49.87302 8.78435 12235 ft 310 kts 121°
2026-04-16 07:39 49.86271 8.81389 12699 ft 313 kts 118°
2026-04-16 07:39 49.85199 8.84447 13186 ft 331 kts 119°
2026-04-16 07:39 49.84052 8.87652 13671 ft 350 kts 120°
2026-04-16 07:40 49.82832 8.91025 14153 ft 366 kts 120°
2026-04-16 07:40 49.81585 8.94457 14572 ft 371 kts 120°
2026-04-16 07:40 49.80314 8.97949 15012 ft 374 kts 120°
2026-04-16 07:40 49.79022 9.01491 15452 ft 377 kts 120°
2026-04-16 07:41 49.77727 9.05038 15900 ft 381 kts 120°
2026-04-16 07:41 49.76511 9.08710 16352 ft 384 kts 113°
2026-04-16 07:41 49.75644 9.12631 16807 ft 388 kts 104°
2026-04-16 07:41 49.74885 9.16646 17284 ft 390 kts 112°
2026-04-16 07:42 49.73632 9.20381 17762 ft 394 kts 124°
2026-04-16 07:42 49.71925 9.23702 18259 ft 396 kts 133°
2026-04-16 07:42 49.70113 9.26865 18707 ft 400 kts 132°
2026-04-16 07:42 49.68261 9.30118 19127 ft 403 kts 132°
2026-04-16 07:43 49.66405 9.33389 19558 ft 406 kts 132°
2026-04-16 07:43 49.64540 9.36677 19994 ft 408 kts 133°
2026-04-16 07:43 49.62778 9.40137 20436 ft 412 kts 124°
2026-04-16 07:43 49.61373 9.44017 20885 ft 416 kts 115°
2026-04-16 07:44 49.60359 9.48217 21345 ft 420 kts 108°
2026-04-16 07:44 49.59463 9.52478 21808 ft 424 kts 108°
2026-04-16 07:44 49.58541 9.56812 22279 ft 427 kts 108°
2026-04-16 07:44 49.57605 9.61175 22751 ft 430 kts 109°
2026-04-16 07:45 49.56657 9.65570 23246 ft 434 kts 109°
2026-04-16 07:45 49.55701 9.69993 23740 ft 438 kts 109°
2026-04-16 07:45 49.54733 9.74456 24170 ft 441 kts 109°
2026-04-16 07:45 49.53728 9.78949 24588 ft 443 kts 112°
2026-04-16 07:46 49.52417 9.83249 25014 ft 445 kts 121°
2026-04-16 07:46 49.50757 9.87207 25449 ft 446 kts 129°
2026-04-16 07:46 49.48804 9.90932 25886 ft 448 kts 131°
2026-04-16 07:46 49.46829 9.94656 26337 ft 451 kts 131°
2026-04-16 07:47 49.44841 9.98418 26790 ft 454 kts 131°
2026-04-16 07:47 49.42839 10.02206 27254 ft 457 kts 131°
2026-04-16 07:47 49.40849 10.05966 27713 ft 459 kts 131°
2026-04-16 07:47 49.38824 10.09787 28146 ft 463 kts 131°
2026-04-16 07:48 49.36782 10.13634 28468 ft 465 kts 131°
2026-04-16 07:48 49.34728 10.17497 28804 ft 467 kts 132°
2026-04-16 07:48 49.32668 10.21366 29128 ft 469 kts 132°
2026-04-16 07:48 49.30599 10.25245 29457 ft 471 kts 132°
2026-04-16 07:49 49.28541 10.29097 29796 ft 473 kts 132°
2026-04-16 07:49 49.26449 10.33009 30149 ft 475 kts 132°
2026-04-16 07:49 49.24344 10.36933 30463 ft 477 kts 133°
2026-04-16 07:49 49.22074 10.40629 30750 ft 476 kts 139°
2026-04-16 07:50 49.19692 10.44154 31049 ft 477 kts 139°
2026-04-16 07:50 49.17299 10.47705 31349 ft 478 kts 139°
2026-04-16 07:50 49.14918 10.51242 31644 ft 477 kts 139°
2026-04-16 07:50 49.12538 10.54774 31955 ft 476 kts 139°
2026-04-16 07:51 49.10165 10.58292 32260 ft 475 kts 139°
2026-04-16 07:51 49.07836 10.61741 32564 ft 474 kts 139°
2026-04-16 07:51 49.05507 10.65185 32874 ft 473 kts 139°
2026-04-16 07:51 49.03141 10.68677 33188 ft 472 kts 140°
2026-04-16 07:52 49.00811 10.72105 33516 ft 472 kts 140°
2026-04-16 07:52 48.98444 10.75581 33840 ft 471 kts 140°
2026-04-16 07:52 48.96090 10.79034 34168 ft 470 kts 140°
2026-04-16 07:52 48.93740 10.82475 34461 ft 469 kts 140°
2026-04-16 07:53 48.91457 10.86021 34735 ft 472 kts 132°
2026-04-16 07:53 48.90174 10.88716 34924 ft 476 kts 124°
2026-04-16 07:53 48.88713 10.93244 35209 ft 480 kts 112°
2026-04-16 07:54 48.86842 11.03032 35242 ft 480 kts 107°
2026-04-16 07:54 48.85087 11.12813 35239 ft 480 kts 107°
2026-04-16 07:55 48.83271 11.22514 35240 ft 480 kts 108°
2026-04-16 07:55 48.81415 11.32237 35239 ft 480 kts 108°
2026-04-16 07:56 48.79546 11.41963 35237 ft 479 kts 108°
2026-04-16 07:56 48.77682 11.51621 35237 ft 479 kts 108°
2026-04-16 07:57 48.76187 11.59332 35237 ft 479 kts 108°
2026-04-16 07:57 48.74311 11.68966 35235 ft 479 kts 108°
2026-04-16 07:58 48.72413 11.78661 35234 ft 479 kts 108°
2026-04-16 07:58 48.70518 11.88293 35240 ft 479 kts 108°
2026-04-16 07:59 48.68608 11.97952 35240 ft 479 kts 108°
2026-04-16 07:59 48.66688 12.07618 35238 ft 479 kts 108°
2026-04-16 08:00 48.64759 12.17275 35244 ft 479 kts 109°
2026-04-16 08:00 48.62826 12.26907 35240 ft 479 kts 109°
2026-04-16 08:01 48.60884 12.36534 35242 ft 479 kts 109°
2026-04-16 08:01 48.58934 12.46155 35244 ft 479 kts 109°
2026-04-16 08:02 48.56990 12.55700 35245 ft 478 kts 109°
2026-04-16 08:02 48.54237 12.70205 35241 ft 479 kts 105°
2026-04-16 08:03 48.52608 12.79965 35240 ft 479 kts 106°
2026-04-16 08:03 48.50953 12.89631 35240 ft 478 kts 106°
2026-04-16 08:04 48.49260 12.99328 35238 ft 478 kts 106°
2026-04-16 08:04 48.47560 13.08982 35235 ft 478 kts 106°
2026-04-16 08:05 48.45848 13.18654 35237 ft 478 kts 107°
2026-04-16 08:05 48.44127 13.28326 35237 ft 477 kts 107°
2026-04-16 08:06 48.42399 13.37986 35237 ft 477 kts 107°
2026-04-16 08:06 48.40666 13.47621 35235 ft 477 kts 107°
2026-04-16 08:07 48.38936 13.57193 35238 ft 477 kts 107°
2026-04-16 08:07 48.37186 13.66820 35238 ft 477 kts 107°
2026-04-16 08:08 48.35501 13.76045 35135 ft 477 kts 107°
2026-04-16 08:08 48.34616 13.80868 34778 ft 477 kts 107°
2026-04-16 08:08 48.33745 13.85607 34394 ft 476 kts 107°
2026-04-16 08:09 48.32862 13.90393 33980 ft 475 kts 107°
2026-04-16 08:09 48.31975 13.95191 33544 ft 476 kts 107°
2026-04-16 08:09 48.31085 13.99996 33112 ft 477 kts 107°
2026-04-16 08:09 48.30191 14.04806 32696 ft 478 kts 107°
2026-04-16 08:10 48.29294 14.09619 32279 ft 478 kts 107°
2026-04-16 08:10 48.28395 14.14431 31875 ft 479 kts 107°
2026-04-16 08:10 48.27495 14.19240 31470 ft 479 kts 107°
2026-04-16 08:10 48.26590 14.24058 31066 ft 479 kts 107°
2026-04-16 08:11 48.25685 14.28868 30683 ft 479 kts 107°
2026-04-16 08:11 48.24790 14.33614 30294 ft 476 kts 107°
2026-04-16 08:11 48.23888 14.38382 29848 ft 472 kts 107°
2026-04-16 08:11 48.22992 14.43106 29403 ft 469 kts 107°
2026-04-16 08:12 48.22100 14.47798 28957 ft 465 kts 107°
2026-04-16 08:12 48.21227 14.52380 28528 ft 462 kts 107°
2026-04-16 08:12 48.20343 14.57007 28099 ft 459 kts 107°
2026-04-16 08:12 48.19466 14.61588 27679 ft 456 kts 107°
2026-04-16 08:13 48.18591 14.66145 27263 ft 453 kts 107°
2026-04-16 08:13 48.17719 14.70674 26855 ft 450 kts 107°
2026-04-16 08:13 48.16852 14.75167 26451 ft 447 kts 107°
2026-04-16 08:13 48.15988 14.79637 26057 ft 445 kts 107°
2026-04-16 08:14 48.15138 14.84025 25671 ft 442 kts 107°
2026-04-16 08:14 48.14279 14.88447 25285 ft 440 kts 107°
2026-04-16 08:14 48.13425 14.92836 24899 ft 438 kts 107°
2026-04-16 08:14 48.12574 14.97199 24526 ft 435 kts 107°
2026-04-16 08:15 48.11725 15.01536 24149 ft 433 kts 107°
2026-04-16 08:15 48.10881 15.05846 23785 ft 431 kts 107°
2026-04-16 08:15 48.10047 15.10089 23345 ft 429 kts 107°
2026-04-16 08:15 48.09207 15.14356 22911 ft 425 kts 107°
2026-04-16 08:16 48.08374 15.18578 22484 ft 422 kts 107°
2026-04-16 08:16 48.07544 15.22776 22062 ft 419 kts 107°
2026-04-16 08:16 48.06719 15.26941 21639 ft 416 kts 107°
2026-04-16 08:16 48.05896 15.31082 21238 ft 414 kts 107°
2026-04-16 08:17 48.05078 15.35192 20832 ft 411 kts 107°
2026-04-16 08:17 48.04277 15.39209 20446 ft 408 kts 107°
2026-04-16 08:17 48.03468 15.43255 20052 ft 405 kts 107°
2026-04-16 08:17 48.02660 15.47295 19662 ft 402 kts 107°
2026-04-16 08:18 48.01858 15.51289 19278 ft 400 kts 107°
2026-04-16 08:19 47.96394 15.78312 15954 ft 378 kts 107°
2026-04-16 08:20 47.95633 15.82042 15457 ft 373 kts 107°
2026-04-16 08:20 47.94882 15.85726 14972 ft 369 kts 107°
2026-04-16 08:20 47.94136 15.89371 14495 ft 365 kts 107°
2026-04-16 08:20 47.93396 15.92980 14007 ft 362 kts 107°
2026-04-16 08:21 47.92662 15.96554 13474 ft 358 kts 107°
2026-04-16 08:21 47.91943 16.00045 12943 ft 355 kts 107°
2026-04-16 08:21 47.91221 16.03548 12441 ft 352 kts 107°
2026-04-16 08:21 47.90506 16.07013 11930 ft 349 kts 107°
2026-04-16 08:22 47.89793 16.10458 11426 ft 346 kts 107°
2026-04-16 08:22 47.89089 16.13860 11089 ft 339 kts 107°
2026-04-16 08:22 47.88406 16.17149 11004 ft 324 kts 107°
2026-04-16 08:22 47.87759 16.20264 11000 ft 306 kts 107°
2026-04-16 08:23 47.87147 16.23208 10968 ft 291 kts 107°
2026-04-16 08:23 47.86558 16.26033 10692 ft 286 kts 107°
2026-04-16 08:23 47.85969 16.28859 10338 ft 285 kts 107°
2026-04-16 08:23 47.85380 16.31680 9953 ft 284 kts 107°
2026-04-16 08:24 47.84790 16.34497 9560 ft 284 kts 107°
2026-04-16 08:24 47.84208 16.37274 9174 ft 285 kts 107°
2026-04-16 08:24 47.83616 16.40095 8781 ft 286 kts 106°
2026-04-16 08:24 47.83023 16.42919 8404 ft 286 kts 106°
2026-04-16 08:25 47.82424 16.45765 8021 ft 288 kts 106°
2026-04-16 08:25 47.81826 16.48600 7643 ft 286 kts 106°
2026-04-16 08:25 47.81227 16.51429 7253 ft 285 kts 106°
2026-04-16 08:25 47.80641 16.54204 6901 ft 285 kts 105°
2026-04-16 08:26 47.80049 16.57005 6530 ft 283 kts 105°
2026-04-16 08:26 47.79457 16.59796 6157 ft 283 kts 105°
2026-04-16 08:26 47.78875 16.62540 6007 ft 272 kts 105°
2026-04-16 08:26 47.78519 16.65198 5989 ft 253 kts 86°
2026-04-16 08:27 47.78907 16.67603 5997 ft 230 kts 57°
2026-04-16 08:27 47.79921 16.69319 5811 ft 217 kts 31°
2026-04-16 08:27 47.81280 16.70132 5580 ft 207 kts
2026-04-16 08:27 47.82687 16.70074 5352 ft 201 kts 349°
2026-04-16 08:28 47.84034 16.69592 5114 ft 197 kts 344°
2026-04-16 08:28 47.85347 16.69026 4905 ft 195 kts 344°
2026-04-16 08:28 47.86636 16.68489 4667 ft 194 kts 345°
2026-04-16 08:28 47.87927 16.67948 4416 ft 193 kts 344°
2026-04-16 08:29 47.89216 16.67405 4204 ft 192 kts 344°
2026-04-16 08:29 47.90492 16.66858 3988 ft 189 kts 344°
2026-04-16 08:29 47.91719 16.66355 3969 ft 177 kts 345°
2026-04-16 08:29 47.92867 16.65871 3880 ft 166 kts 344°
2026-04-16 08:30 47.93951 16.65417 3690 ft 160 kts 345°
2026-04-16 08:30 47.95004 16.64977 3464 ft 157 kts 345°
2026-04-16 08:30 47.96042 16.64537 3250 ft 151 kts 344°
2026-04-16 08:30 47.97032 16.64121 3041 ft 146 kts 344°
2026-04-16 08:31 47.98013 16.63708 2831 ft 147 kts 344°
2026-04-16 08:31 47.99008 16.63292 2648 ft 150 kts 343°
2026-04-16 08:31 48.00002 16.62869 2431 ft 146 kts 343°
2026-04-16 08:31 48.00964 16.62459 2223 ft 140 kts 345°
2026-04-16 08:32 48.01895 16.62064 2037 ft 139 kts 345°
2026-04-16 08:32 48.02841 16.61667 1862 ft 145 kts 343°
2026-04-16 08:32 48.03824 16.61259 1645 ft 144 kts 343°
2026-04-16 08:32 48.04765 16.60860 1450 ft 138 kts 343°
2026-04-16 08:33 48.05671 16.60478 1261 ft 133 kts 343°
2026-04-16 08:33 48.06559 16.60103 1091 ft 133 kts 343°
2026-04-16 08:33 48.07471 16.59718 918 ft 138 kts 343°
2026-04-16 08:33 48.08386 16.59331 735 ft 130 kts 344°
2026-04-16 08:34 48.09203 16.58977 632 ft 115 kts 342°
2026-04-16 08:34 48.09903 16.58702 613 ft 81 kts 344°
2026-04-16 08:34 48.10151 16.58590 619 ft 0 kts 340°
2026-04-16 08:34 48.10155 16.58588 617 ft 3 kts 340°
2026-04-16 08:35 48.10257 16.58546 616 ft 20 kts 346°
2026-04-16 08:35 48.10411 16.58482 619 ft 25 kts 343°
2026-04-16 08:35 48.10585 16.58408 618 ft 27 kts 345°
2026-04-16 08:35 48.10771 16.58328 618 ft 28 kts 345°
2026-04-16 08:36 48.10965 16.58240 617 ft 30 kts 342°
2026-04-16 08:36 48.11169 16.58157 618 ft 31 kts 347°
2026-04-16 08:36 48.11380 16.58077 617 ft 32 kts 344°
2026-04-16 08:36 48.11593 16.57982 618 ft 33 kts 344°
2026-04-16 08:37 48.11766 16.57909 618 ft 16 kts 342°
2026-04-16 08:37 48.11852 16.57787 617 ft 19 kts 294°
2026-04-16 08:37 48.11846 16.57593 623 ft 15 kts 257°
2026-04-16 08:37 48.11831 16.57505 623 ft 10 kts 255°
2026-04-16 08:38 48.11822 16.57453 609 ft 2 kts 256°
2026-04-16 08:38 48.11819 16.57435 623 ft 0 kts 257°
2026-04-16 08:38 48.11814 16.57400 614 ft 9 kts 257°
2026-04-16 08:38 48.11831 16.57292 616 ft 10 kts 296°
2026-04-16 08:39 48.11850 16.57207 615 ft 7 kts 271°
2026-04-16 08:39 48.11850 16.57167 609 ft 0 kts 290°
2026-04-16 08:39 48.11852 16.57162 609 ft 5 kts 295°
2026-04-16 08:40 48.11849 16.57075 612 ft 4 kts 217°
2026-04-16 08:40 48.11835 16.57062 622 ft 5 kts 210°
2026-04-16 08:40 48.11817 16.57048 622 ft 5 kts 206°
2026-04-16 08:40 48.11807 16.57041 620 ft 0 kts 206°